{"data":{"norad_id":59377,"epoch":"2026-05-25T05:17:42.157248Z","epoch_age_seconds":55902,"freshness":"FRESH","line1":"1 59377U 24062D   26145.22062682  .00000281  00000+0  21602-4 0  9996","line2":"2 59377  53.1592 211.5375 0000848  99.1150 260.9946 15.30194936122021","mean_motion":15.30194936,"eccentricity":8.48e-5,"inclination_deg":53.1592,"raan_deg":211.5375,"arg_perigee_deg":99.115,"mean_anomaly_deg":260.9946,"bstar":2.1602e-5,"rev_number":12202,"period_min":94.105657137007,"perigee_km":474.64902411455,"apogee_km":475.81135518991,"semimajor_km":6853.3671896522,"source":"CELESTRAK","updated_at":"2026-05-25T13:38:18.913806Z"}}